Weather History for Midland Airpark, TX

Change the Weather History Date:

Friday, April 13, 2012

  Actual Average (KMAF) Record (KMAF)
Temperature  
Mean Temperature 78 °F 63 °F  
Max Temperature 88 °F 79 °F 97 °F (1972)
Min Temperature 68 °F 48 °F 28 °F (1957)
Degree Days  
Heating Degree Days 0 4  
Month to date heating degree days 69  
Since 1 July heating degree days 2613  
Cooling Degree Days 13 3  
Month to date cooling degree days 24  
Year to date cooling degree days 42  
Growing Degree Days 28 (Base 50)    
Moisture  
Dew Point 54 °F    
Average Humidity 53    
Maximum Humidity 82    
Minimum Humidity 11    
Precipitation  
Precipitation 0.00 in 0.02 in 0.59 in (1958)
Month to date precipitation 0.28  
Year to date precipitation 2.15  
Snow  
Snow 0.00 in - - ()
Month to date snowfall  
Since 1 July snowfall  
Snow Depth -    
Sea Level Pressure  
Sea Level Pressure 29.85 in    
Wind  
Wind Speed 10 mph (South)    
Max Wind Speed 20 mph    
Max Gust Speed 32 mph    
Visibility 10 miles    
Events      
T = Trace of Precipitation, MM = Missing Value Source: NWS Daily Summary

Daily Weather History Graph

Daily Weather History Graph

Search for Another Location

Airport:

Trip Planner

Search our weather history database for the weather conditions in past years. The results will help you decide how hot, cold, wet, or windy it might be!

Date:

Astronomy

Apr. 13, 2012 Rise Set
Actual Time 7:21 AM CDT 8:16 PM CDT
Civil Twilight 6:56 AM CDT 8:41 PM CDT
Nautical Twilight 6:26 AM CDT 9:11 PM CDT
Astronomical Twilight 5:56 AM CDT 9:41 PM CDT
Moon 2:41 AM CDT (4/13) 1:32 PM CDT (4/13)
Length of Visible Light 13h 45m
Length of Day
12h 55m
Waning Gibbous, 47% of the Moon is Illuminated
Apr 13
Waning Gibbous
Apr 21
New
Apr 29
First Quarter
May 5
Full
May 12
Last Quarter

Hourly Weather History & Observations

Time (CDT) Temp. Heat Index Dew Point Humidity Pressure Visibility Wind Dir Wind Speed Gust Speed Precip Events Conditions
12:15 AM 70.7 °F - 62.4 °F 75% 29.89 in 10.0 mi South 9.2 mph - N/A   Scattered Clouds
12:35 AM 70.7 °F - 62.6 °F 75% 29.89 in 10.0 mi South 8.1 mph - N/A   Mostly Cloudy
12:55 AM 70.7 °F - 62.6 °F 75% 29.89 in 10.0 mi South 8.1 mph - N/A   Mostly Cloudy
1:15 AM 70.9 °F - 62.8 °F 75% 29.89 in 10.0 mi South 9.2 mph - N/A   Mostly Cloudy
1:35 AM 71.4 °F - 63.0 °F 75% 29.89 in 10.0 mi South 8.1 mph - N/A   Overcast
1:55 AM 72.1 °F - 63.0 °F 73% 29.89 in 10.0 mi South 9.2 mph - N/A   Overcast
2:15 AM 72.5 °F - 62.8 °F 71% 29.89 in 10.0 mi SSW 11.5 mph - N/A   Mostly Cloudy
2:35 AM 72.0 °F - 62.8 °F 73% 29.89 in 10.0 mi SSW 6.9 mph - N/A   Overcast
3:15 AM 71.8 °F - 62.8 °F 73% 29.89 in 10.0 mi South 5.8 mph - N/A   Mostly Cloudy
3:35 AM 71.6 °F - 62.6 °F 73% 29.89 in 10.0 mi SSW 8.1 mph - N/A   Mostly Cloudy
3:55 AM 71.4 °F - 62.4 °F 73% 29.88 in 10.0 mi South 6.9 mph - N/A   Overcast
4:15 AM 71.2 °F - 62.6 °F 74% 29.89 in 10.0 mi South 6.9 mph - N/A   Overcast
4:55 AM 70.9 °F - 62.2 °F 74% 29.89 in 10.0 mi SSW 8.1 mph - N/A   Mostly Cloudy
5:55 AM 70.5 °F - 62.4 °F 75% 29.90 in 10.0 mi South 9.2 mph - N/A   Mostly Cloudy
6:15 AM 70.2 °F - 62.6 °F 77% 29.90 in 10.0 mi South 5.8 mph - N/A   Mostly Cloudy
6:35 AM 70.0 °F - 62.6 °F 77% 29.90 in 10.0 mi South 6.9 mph - N/A   Mostly Cloudy
6:55 AM 69.8 °F - 62.8 °F 78% 29.90 in 10.0 mi SSE 12.7 mph - N/A   Mostly Cloudy
7:15 AM 69.4 °F - 62.6 °F 79% 29.89 in 10.0 mi SSE 10.4 mph - N/A   Scattered Clouds
7:35 AM 68.9 °F - 62.6 °F 80% 29.90 in 10.0 mi South 8.1 mph - N/A   Scattered Clouds
7:55 AM 68.5 °F - 62.6 °F 81% 29.91 in 10.0 mi South 8.1 mph - N/A   Scattered Clouds
8:15 AM 68.4 °F - 62.8 °F 82% 29.92 in 10.0 mi South 8.1 mph - N/A   Mostly Cloudy
8:35 AM 68.7 °F - 62.8 °F 81% 29.92 in 7.0 mi South 11.5 mph 17.3 mph N/A   Overcast
8:55 AM 69.1 °F - 62.8 °F 80% 29.92 in 7.0 mi South 13.8 mph 17.3 mph N/A   Mostly Cloudy
9:15 AM 69.8 °F - 62.6 °F 78% 29.92 in 10.0 mi South 10.4 mph 18.4 mph N/A   Mostly Cloudy
9:35 AM 70.7 °F - 62.1 °F 74% 29.93 in 10.0 mi SSW 13.8 mph - N/A   Overcast
9:55 AM 70.9 °F - 61.7 °F 73% 29.93 in 10.0 mi SW 10.4 mph - N/A   Overcast
10:15 AM 71.2 °F - 61.3 °F 71% 29.93 in 10.0 mi South 10.4 mph - N/A   Overcast
10:35 AM 72.0 °F - 61.0 °F 68% 29.93 in 10.0 mi South 9.2 mph - N/A   Mostly Cloudy
10:55 AM 73.4 °F - 60.6 °F 64% 29.93 in 10.0 mi SSE 9.2 mph - N/A   Scattered Clouds
11:15 AM 75.6 °F - 60.3 °F 59% 29.93 in 10.0 mi SSE 9.2 mph - N/A   Mostly Cloudy
11:35 AM 76.1 °F - 59.7 °F 57% 29.93 in 10.0 mi South 6.9 mph - N/A   Scattered Clouds
11:55 AM 77.4 °F - 59.4 °F 54% 29.92 in 10.0 mi SSW 5.8 mph - N/A   Scattered Clouds
12:15 PM 77.7 °F - 59.0 °F 52% 29.91 in 10.0 mi SSW 5.8 mph - N/A   Scattered Clouds
12:35 PM 78.4 °F - 58.1 °F 50% 29.90 in 10.0 mi SSW 4.6 mph - N/A   Clear
12:55 PM 78.8 °F - 57.0 °F 47% 29.89 in 10.0 mi SSE 6.9 mph - N/A   Clear
1:15 PM 79.9 °F - 55.2 °F 43% 29.89 in 10.0 mi ESE 6.9 mph - N/A   Clear
1:35 PM 79.7 °F - 55.2 °F 43% 29.87 in 10.0 mi South 4.6 mph - N/A   Clear
1:55 PM 81.7 °F - 52.0 °F 36% 29.86 in 10.0 mi South 4.6 mph - N/A   Clear
2:15 PM 82.4 °F - 49.8 °F 32% 29.85 in 10.0 mi SSW 8.1 mph - N/A   Clear
2:35 PM 84.7 °F - 45.5 °F 25% 29.84 in 10.0 mi South 9.2 mph - N/A   Clear
2:55 PM 86.0 °F - 40.5 °F 20% 29.83 in 10.0 mi South 5.8 mph - N/A   Clear
3:15 PM 86.4 °F - 36.9 °F 17% 29.82 in 10.0 mi West 8.1 mph - N/A   Clear
3:35 PM 86.9 °F - 34.7 °F 16% 29.81 in 10.0 mi South 18.4 mph - N/A   Clear
3:55 PM 87.6 °F - 31.5 °F 13% 29.81 in 10.0 mi SSE 13.8 mph 18.4 mph N/A   Clear
4:15 PM 87.8 °F - 29.1 °F 12% 29.80 in 10.0 mi South 13.8 mph 25.3 mph N/A   Clear
4:35 PM 87.8 °F - 28.2 °F 12% 29.79 in 10.0 mi SSW 16.1 mph 19.6 mph N/A   Clear
4:55 PM 88.0 °F - 27.3 °F 11% 29.78 in 10.0 mi SSW 16.1 mph 25.3 mph N/A   Clear
5:15 PM 87.4 °F - 26.1 °F 11% 29.77 in 10.0 mi SW 11.5 mph 19.6 mph N/A   Clear
5:35 PM 86.5 °F - 25.9 °F 11% 29.77 in 10.0 mi South 16.1 mph 23.0 mph N/A   Clear
5:55 PM 87.3 °F - 25.5 °F 11% 29.76 in 10.0 mi South 5.8 mph 21.9 mph N/A   Clear
6:15 PM 87.1 °F - 25.3 °F 11% 29.76 in 10.0 mi SSW 11.5 mph - N/A   Clear
6:35 PM 86.9 °F - 26.1 °F 11% 29.76 in 10.0 mi South 12.7 mph - N/A   Clear
6:55 PM 86.5 °F - 32.9 °F 15% 29.75 in 10.0 mi SSE 18.4 mph - N/A   Clear
7:15 PM 85.1 °F - 48.4 °F 28% 29.75 in 10.0 mi SSE 18.4 mph 24.2 mph N/A   Clear
7:35 PM 83.3 °F - 51.8 °F 34% 29.75 in 10.0 mi SSE 19.6 mph 25.3 mph N/A   Clear
7:55 PM 81.9 °F 81.2 °F 54.5 °F 39% 29.75 in 10.0 mi SSE 18.4 mph 27.6 mph N/A   Clear
8:15 PM 80.4 °F 80.5 °F 55.9 °F 43% 29.76 in 10.0 mi SSE 17.3 mph 26.5 mph N/A   Clear
8:35 PM 79.2 °F - 57.4 °F 47% 29.77 in 10.0 mi SSE 18.4 mph 24.2 mph N/A   Clear
8:55 PM 77.9 °F - 58.5 °F 51% 29.77 in 10.0 mi SE 17.3 mph 25.3 mph N/A   Clear
9:15 PM 76.6 °F - 59.0 °F 54% 29.78 in 10.0 mi SSE 18.4 mph 32.2 mph N/A   Clear
9:35 PM 75.7 °F - 59.0 °F 56% 29.78 in 10.0 mi SSE 19.6 mph 23.0 mph N/A   Clear
9:55 PM 74.8 °F - 59.4 °F 58% 29.79 in 10.0 mi SSE 16.1 mph 29.9 mph N/A   Clear
10:15 PM 74.1 °F - 59.5 °F 60% 29.79 in 10.0 mi SSE 18.4 mph 25.3 mph N/A   Clear
10:35 PM 73.4 °F - 59.9 °F 63% 29.79 in 10.0 mi SSE 18.4 mph 25.3 mph N/A   Clear
10:55 PM 72.9 °F - 60.6 °F 65% 29.78 in 10.0 mi SSE 18.4 mph - N/A   Clear
11:15 PM 72.3 °F - 61.2 °F 68% 29.78 in 10.0 mi SSE 17.3 mph - N/A   Scattered Clouds
11:55 PM 72.3 °F - 61.9 °F 70% 29.77 in 10.0 mi SSE 17.3 mph 26.5 mph N/A   Mostly Cloudy